SCOUT A R/B, 2967

Orbit data source: Space-Track

SCOUT A R/B, 2967 is space debris in LEO originally from a launch on Mon, 25 Sep 1967 UTC launched from the Air Force Western Test Range (AFWTR). Debris objects in space refer to the collection of defunct objects orbiting the Earth. Examples of debris include non-operational satellites, rocket bodies, and fragments generated from explosions, collisions, or faulty payload assembly.

Loading next visibility...
SCOUT A R/B details
Identifier
2967, 1967-092B
Orbit
LEO
Last TLE update20 hours ago
Origin
Flag of USNASA LaRC (US)
ManufacturerABL
MissionSpacecraft
Bus & MotorALTAIR, Unknown motor
Mass33 kg wet, 33 kg dry
Launch date (UTC)
1967-09-25 (57 years ago)
Launch vehicleUnknown
Launch site
Air Force Western Test Range (AFWTR)
Object type
Payload
Rocket body
Debris
Shape & HBRCyl, 1.5 m
Radar Cross Section0.687 m², Medium (>0.1 m² and < 1m²)

Expand to show TLE details & history

TLE from 20 hours ago
0 SCOUT A R/B
1 02967U 67092B   24355.69969017  .00000177  00000-0  24983-3 0  9998
2 02967  89.2375  50.5748 0045111 235.4992 249.7148 13.52286209821470
Epoch: 2024-12-20T16:47Z
Definitive object data (Epoch: 2024-12-20T16:47:33.23Z)
Latitude55.3563°
Longitude-112.17308°
Altitude1,084.893 km
Speed7.309 km/s
True Right ascension15h 17m 54s
True Declination55° 12' 08"
Sunlit
Object was in daylight at TLE epoch
Visualization TLE readout
Latitude-65.36527°
Longitude-109.48527°
Altitude1,055.985 km
Speed7.339 km/s
Apparent Right ascension21h 19m 41s
Apparent Declination-70° 06' 03"
Sunlit
Object is in daylight
Visualization observer readout
Local Sidereal Time11:56:57
Azimuth158.668° S
Elevation-53.641°
Doppler factor1
Orbital elements
Apogee altitude1,094.465 km
Perigee altitude1,027.349 km
Semi-major axis7,439.044 km
Eccentricity0.0045111
Inclination89.2375°
RAAN50.5748°
Arg. of periapsis235.4992°
True anomaly249.23088°
Mean anomaly249.7148°
Eccentric anomaly249.47274°
Mean motion3.38273 °/min
BSTAR0.00024983
Orbital period106.42 mins
Loading maneuver chart data...
Loading historical data...
Loading historical data...
Loading historical data...
Loading historical data...
Loading historical data...
Loading historical data...
Loading historical data...

SCOUT A R/B Visibility forecast

Observer location: undefined°, undefined

Span
Click to sort rows by Start time (UTC) header in descending order
Start Az.
Max El. time (UTC)
Max El. Az.
Max El.
End time (UTC)
End Az.
12 mins2024-12-21 15:51:04.881Z7.86° NNE2024-12-21 15:57:04.881Z79.731° E42.075°2024-12-21 16:03:04.881Z169.372° S
7 mins2024-12-21 17:40:04.881Z317.926° NNW2024-12-21 17:43:04.881Z285.57° WNW18.814°2024-12-21 17:47:04.881Z245.779° WSW
11 mins2024-12-22 03:48:04.881Z157.217° SSE2024-12-22 03:53:04.881Z94.982° ESE40.126°2024-12-22 03:59:04.881Z8.883° NNE
9 mins2024-12-22 05:36:04.881Z237.8° WSW2024-12-22 05:40:04.881Z279.708° WNW21.276°2024-12-22 05:45:04.881Z329.597° NNW
|